Location: Winthrop
(48.4780°N, 120.1850°W)
Time: 04:14:23
(UTC-08:00)

Vanguard 1 Rocket - Pass Details

Date: 05 December 2023
Orbit: 654 x 4218 km, 34.3° (Epoch: 24 February)

Event Time Altitude Azimuth Distance (km) Brightness Sun altitude
Rises 03:25:39 0° 213° (SSW) 8,444 - -40.4°
Exits shadow 03:29:50 - 209° (SSW) 7,771 11.8 -39.8°
Reaches altitude 10° 03:32:55 10° 205° (SSW) 7,263 11.7 -39.3°
Maximum altitude 03:51:17 31° 155° (SSE) 4,642 11.0 -36.3°
Drops below altitude 10° 04:03:33 10° 101° (E) 4,879 11.9 -34.2°
Sets 04:07:09 0° 91° (E) 5,437 12.4 -33.6°
